owner,sensor,date,latitude,longitude,vertical_datum,wind_speed,wind_to_direction,wind_speed_of_gust,qcFlag 
TCOON,ioos:station:TCOON:005:1,2019-01-01T00:00:00Z,27.6346,-97.2370,0.0,2.2,81.0,2.2,'11111222,11111222,11111222' 
TCOON,ioos:station:TCOON:005:1,2019-01-01T00:06:00Z,27.6346,-97.2370,0.0,1.5,109.0,2.1,'11111222,11111222,11111222' 
TCOON,ioos:station:TCOON:005:1,2019-01-01T00:12:00Z,27.6346,-97.2370,0.0,1.6,113.0,1.7,'11111222,11111222,11111222' 
TCOON,ioos:station:TCOON:005:1,2019-01-01T00:18:00Z,27.6346,-97.2370,0.0,1.0,142.0,1.5,'11111222,11111222,11111222' 
TCOON,ioos:station:TCOON:005:1,2019-01-01T00:24:00Z,27.6346,-97.2370,0.0,1.0,142.0,1.5,'1111122,1111122,1111122' 
TCOON,ioos:station:TCOON:005:1,2019-01-01T00:30:00Z,27.6346,-97.2370,0.0,1.1,123.0,1.3,'11111222,11111222,11111222' 
TCOON,ioos:station:TCOON:005:1,2019-01-01T00:36:00Z,27.6346,-97.2370,0.0,0.4,150.0,1.1,'11111222,11111222,11111222' 
TCOON,ioos:station:TCOON:005:1,2019-01-01T00:42:00Z,27.6346,-97.2370,0.0,1.4,147.0,1.6,'11111222,11111222,11111222' 
TCOON,ioos:station:TCOON:005:1,2019-01-01T00:48:00Z,27.6346,-97.2370,0.0,1.0,141.0,1.3,'11111222,11111222,11111222' 
TCOON,ioos:station:TCOON:005:1,2019-01-01T00:54:00Z,27.6346,-97.2370,0.0,1.0,163.0,1.3,'11111222,11111222,11111222' 
TCOON,ioos:station:TCOON:005:1,2019-01-01T01:00:00Z,27.6346,-97.2370,0.0,1.1,159.0,1.9,'11111222,11111222,11111222' 
TCOON,ioos:station:TCOON:005:1,2019-01-01T01:06:00Z,27.6346,-97.2370,0.0,1.0,151.0,1.3,'11111222,11111222,11111222' 
TCOON,ioos:station:TCOON:005:1,2019-01-01T01:12:00Z,27.6346,-97.2370,0.0,0.1,128.0,1.1,'11111222,11111222,11111222' 
TCOON,ioos:station:TCOON:005:1,2019-01-01T01:18:00Z,27.6346,-97.2370,0.0,1.0,119.0,1.1,'11111222,11111222,11111222' 
TCOON,ioos:station:TCOON:005:1,2019-01-01T01:24:00Z,27.6346,-97.2370,0.0,1.0,119.0,1.1,'1111122,1111122,1111122' 
TCOON,ioos:station:TCOON:005:1,2019-01-01T01:30:00Z,27.6346,-97.2370,0.0,0.8,143.0,1.0,'11111222,11111222,11111222' 
TCOON,ioos:station:TCOON:005:1,2019-01-01T01:36:00Z,27.6346,-97.2370,0.0,0.5,143.0,0.9,'11111222,11111222,11111222' 
TCOON,ioos:station:TCOON:005:1,2019-01-01T01:42:00Z,27.6346,-97.2370,0.0,0.0,123.0,0.7,'11111222,11111222,11111222' 
TCOON,ioos:station:TCOON:005:1,2019-01-01T01:48:00Z,27.6346,-97.2370,0.0,0.0,122.0,0.0,'11111222,11111222,11111222' 
TCOON,ioos:station:TCOON:005:1,2019-01-01T01:54:00Z,27.6346,-97.2370,0.0,0.1,109.0,0.5,'11111222,11111222,11111222' 
TCOON,ioos:station:TCOON:005:1,2019-01-01T02:00:00Z,27.6346,-97.2370,0.0,0.1,57.0,0.7,'11111222,11111222,11111222' 
TCOON,ioos:station:TCOON:005:1,2019-01-01T02:06:00Z,27.6346,-97.2370,0.0,0.5,93.0,0.6,'11111222,11111222,11111222' 
TCOON,ioos:station:TCOON:005:1,2019-01-01T02:12:00Z,27.6346,-97.2370,0.0,0.7,106.0,1.0,'11111222,11111222,11111222' 
TCOON,ioos:station:TCOON:005:1,2019-01-01T02:18:00Z,27.6346,-97.2370,0.0,0.7,150.0,1.5,'11111222,11111222,11111222' 
TCOON,ioos:station:TCOON:005:1,2019-01-01T02:24:00Z,27.6346,-97.2370,0.0,0.7,150.0,1.5,'1111122,1111122,1111122' 
TCOON,ioos:station:TCOON:005:1,2019-01-01T02:30:00Z,27.6346,-97.2370,0.0,0.8,153.0,1.3,'11111222,11111222,11111222' 
TCOON,ioos:station:TCOON:005:1,2019-01-01T02:36:00Z,27.6346,-97.2370,0.0,0.8,164.0,1.0,'11111222,11111222,11111222' 
TCOON,ioos:station:TCOON:005:1,2019-01-01T02:42:00Z,27.6346,-97.2370,0.0,0.5,166.0,1.0,'11111222,11111222,11111222' 
TCOON,ioos:station:TCOON:005:1,2019-01-01T02:48:00Z,27.6346,-97.2370,0.0,1.6,141.0,1.7,'11111222,11111222,11111222' 
TCOON,ioos:station:TCOON:005:1,2019-01-01T02:54:00Z,27.6346,-97.2370,0.0,1.6,151.0,1.9,'11111222,11111222,11111222' 
TCOON,ioos:station:TCOON:005:1,2019-01-01T03:00:00Z,27.6346,-97.2370,0.0,1.2,156.0,1.8,'11111222,11111222,11111222' 
TCOON,ioos:station:TCOON:005:1,2019-01-01T03:06:00Z,27.6346,-97.2370,0.0,0.5,151.0,1.1,'11111222,11111222,11111222' 
TCOON,ioos:station:TCOON:005:1,2019-01-01T03:12:00Z,27.6346,-97.2370,0.0,0.8,190.0,1.0,'11111222,11111222,11111222' 
TCOON,ioos:station:TCOON:005:1,2019-01-01T03:18:00Z,27.6346,-97.2370,0.0,1.1,188.0,1.2,'11111222,11111222,11111222' 
TCOON,ioos:station:TCOON:005:1,2019-01-01T03:24:00Z,27.6346,-97.2370,0.0,1.1,188.0,1.2,'1111122,1111122,1111122' 
TCOON,ioos:station:TCOON:005:1,2019-01-01T03:30:00Z,27.6346,-97.2370,0.0,1.1,176.0,1.3,'11111222,11111222,11111222' 
TCOON,ioos:station:TCOON:005:1,2019-01-01T03:36:00Z,27.6346,-97.2370,0.0,0.8,220.0,1.2,'11111222,11111222,11111222' 
TCOON,ioos:station:TCOON:005:1,2019-01-01T03:42:00Z,27.6346,-97.2370,0.0,0.8,210.0,1.0,'11111222,11111222,11111222' 
TCOON,ioos:station:TCOON:005:1,2019-01-01T03:48:00Z,27.6346,-97.2370,0.0,0.6,179.0,0.9,'11111222,11111222,11111222' 
TCOON,ioos:station:TCOON:005:1,2019-01-01T03:54:00Z,27.6346,-97.2370,0.0,0.8,176.0,1.2,'11111222,11111222,11111222' 
TCOON,ioos:station:TCOON:005:1,2019-01-01T04:00:00Z,27.6346,-97.2370,0.0,0.8,181.0,0.9,'11111222,11111222,11111222' 
TCOON,ioos:station:TCOON:005:1,2019-01-01T04:06:00Z,27.6346,-97.2370,0.0,0.2,237.0,0.8,'11111222,11111222,11111222' 
TCOON,ioos:station:TCOON:005:1,2019-01-01T04:12:00Z,27.6346,-97.2370,0.0,0.0,266.0,0.7,'11111222,11111222,11111222' 
TCOON,ioos:station:TCOON:005:1,2019-01-01T04:18:00Z,27.6346,-97.2370,0.0,0.5,191.0,0.7,'11111222,11111222,11111222' 
TCOON,ioos:station:TCOON:005:1,2019-01-01T04:24:00Z,27.6346,-97.2370,0.0,0.5,191.0,0.7,'1111122,1111122,1111122' 
TCOON,ioos:station:TCOON:005:1,2019-01-01T04:30:00Z,27.6346,-97.2370,0.0,1.6,159.0,1.7,'11111222,11111222,11111222' 
TCOON,ioos:station:TCOON:005:1,2019-01-01T04:36:00Z,27.6346,-97.2370,0.0,0.0,184.0,1.5,'11111222,11111222,11111222' 
TCOON,ioos:station:TCOON:005:1,2019-01-01T04:42:00Z,27.6346,-97.2370,0.0,0.7,195.0,0.8,'11111222,11111222,11111222' 
TCOON,ioos:station:TCOON:005:1,2019-01-01T04:48:00Z,27.6346,-97.2370,0.0,0.2,213.0,0.8,'11111222,11111222,11111222' 
TCOON,ioos:station:TCOON:005:1,2019-01-01T04:54:00Z,27.6346,-97.2370,0.0,0.8,219.0,1.0,'11111222,11111222,11111222' 
TCOON,ioos:station:TCOON:005:1,2019-01-01T05:00:00Z,27.6346,-97.2370,0.0,0.7,290.0,0.8,'11111222,11111222,11111222' 
TCOON,ioos:station:TCOON:005:1,2019-01-01T05:06:00Z,27.6346,-97.2370,0.0,0.7,224.0,0.8,'11111222,11111222,11111222' 
TCOON,ioos:station:TCOON:005:1,2019-01-01T05:12:00Z,27.6346,-97.2370,0.0,0.5,253.0,0.8,'11111222,11111222,11111222' 
TCOON,ioos:station:TCOON:005:1,2019-01-01T05:18:00Z,27.6346,-97.2370,0.0,0.0,217.0,0.5,'11111222,11111222,11111222' 
TCOON,ioos:station:TCOON:005:1,2019-01-01T05:24:00Z,27.6346,-97.2370,0.0,0.0,217.0,0.5,'1114422,1111122,1111122' 
TCOON,ioos:station:TCOON:005:1,2019-01-01T05:30:00Z,27.6346,-97.2370,0.0,1.0,322.0,1.2,'11111222,11111222,11111222' 
TCOON,ioos:station:TCOON:005:1,2019-01-01T05:36:00Z,27.6346,-97.2370,0.0,1.3,304.0,1.5,'11111222,11111222,11111222' 
TCOON,ioos:station:TCOON:005:1,2019-01-01T05:42:00Z,27.6346,-97.2370,0.0,1.4,291.0,1.9,'11111222,11111222,11111222' 
TCOON,ioos:station:TCOON:005:1,2019-01-01T05:48:00Z,27.6346,-97.2370,0.0,1.2,308.0,2.1,'11111222,11111222,11111222' 
TCOON,ioos:station:TCOON:005:1,2019-01-01T05:54:00Z,27.6346,-97.2370,0.0,1.0,339.0,1.1,'11111222,11111222,11111222' 
TCOON,ioos:station:TCOON:005:1,2019-01-01T06:00:00Z,27.6346,-97.2370,0.0,0.7,335.0,1.0,'11111222,11111222,11111222' 
TCOON,ioos:station:TCOON:005:1,2019-01-01T06:06:00Z,27.6346,-97.2370,0.0,1.0,321.0,1.1,'11111222,11111222,11111222' 
TCOON,ioos:station:TCOON:005:1,2019-01-01T06:12:00Z,27.6346,-97.2370,0.0,0.0,321.0,0.9,'11111222,11111222,11111222' 
TCOON,ioos:station:TCOON:005:1,2019-01-01T06:18:00Z,27.6346,-97.2370,0.0,0.6,321.0,0.9,'11111222,11111222,11111222' 
TCOON,ioos:station:TCOON:005:1,2019-01-01T06:24:00Z,27.6346,-97.2370,0.0,0.6,321.0,0.9,'1111122,1111122,1111122' 
TCOON,ioos:station:TCOON:005:1,2019-01-01T06:30:00Z,27.6346,-97.2370,0.0,0.0,307.0,0.2,'11111222,11111222,11111222' 
TCOON,ioos:station:TCOON:005:1,2019-01-01T06:36:00Z,27.6346,-97.2370,0.0,0.6,214.0,0.7,'11111222,11111222,11111222' 
TCOON,ioos:station:TCOON:005:1,2019-01-01T06:42:00Z,27.6346,-97.2370,0.0,0.0,245.0,0.5,'11111222,11111222,11111222' 
TCOON,ioos:station:TCOON:005:1,2019-01-01T06:48:00Z,27.6346,-97.2370,0.0,1.0,307.0,1.1,'11111222,11111222,11111222' 
TCOON,ioos:station:TCOON:005:1,2019-01-01T06:54:00Z,27.6346,-97.2370,0.0,0.2,310.0,0.9,'11111222,11111222,11111222' 
TCOON,ioos:station:TCOON:005:1,2019-01-01T07:00:00Z,27.6346,-97.2370,0.0,0.7,300.0,0.8,'11111222,11111222,11111222' 
TCOON,ioos:station:TCOON:005:1,2019-01-01T07:06:00Z,27.6346,-97.2370,0.0,1.5,314.0,1.8,'11111222,11111222,11111222' 
TCOON,ioos:station:TCOON:005:1,2019-01-01T07:12:00Z,27.6346,-97.2370,0.0,1.2,332.0,2.0,'11111222,11111222,11111222' 
TCOON,ioos:station:TCOON:005:1,2019-01-01T07:18:00Z,27.6346,-97.2370,0.0,1.4,328.0,1.5,'11111222,11111222,11111222' 
TCOON,ioos:station:TCOON:005:1,2019-01-01T07:24:00Z,27.6346,-97.2370,0.0,1.4,328.0,1.5,'1111122,1111122,1111122' 
TCOON,ioos:station:TCOON:005:1,2019-01-01T07:30:00Z,27.6346,-97.2370,0.0,1.3,318.0,1.3,'11111222,11111222,11111222' 
TCOON,ioos:station:TCOON:005:1,2019-01-01T07:36:00Z,27.6346,-97.2370,0.0,1.2,313.0,1.3,'11111222,11111222,11111222' 
TCOON,ioos:station:TCOON:005:1,2019-01-01T07:42:00Z,27.6346,-97.2370,0.0,1.5,3.0,1.6,'11111222,11111222,11111222' 
TCOON,ioos:station:TCOON:005:1,2019-01-01T07:48:00Z,27.6346,-97.2370,0.0,1.3,16.0,1.6,'11111222,11111222,11111222' 
TCOON,ioos:station:TCOON:005:1,2019-01-01T07:54:00Z,27.6346,-97.2370,0.0,0.5,47.0,1.2,'11111222,11111222,11111222' 
TCOON,ioos:station:TCOON:005:1,2019-01-01T08:00:00Z,27.6346,-97.2370,0.0,0.9,27.0,0.9,'11111222,11111222,11111222' 
TCOON,ioos:station:TCOON:005:1,2019-01-01T08:06:00Z,27.6346,-97.2370,0.0,1.4,2.0,1.5,'11111222,11111222,11111222' 
TCOON,ioos:station:TCOON:005:1,2019-01-01T08:12:00Z,27.6346,-97.2370,0.0,1.6,7.0,1.7,'11111222,11111222,11111222' 
TCOON,ioos:station:TCOON:005:1,2019-01-01T08:18:00Z,27.6346,-97.2370,0.0,1.2,345.0,1.5,'11111222,11111222,11111222' 
TCOON,ioos:station:TCOON:005:1,2019-01-01T08:24:00Z,27.6346,-97.2370,0.0,1.2,345.0,1.5,'1111122,1111122,1111122' 
TCOON,ioos:station:TCOON:005:1,2019-01-01T08:30:00Z,27.6346,-97.2370,0.0,1.3,356.0,1.7,'11111222,11111222,11111222' 
TCOON,ioos:station:TCOON:005:1,2019-01-01T08:36:00Z,27.6346,-97.2370,0.0,1.2,334.0,1.7,'11111222,11111222,11111222' 
TCOON,ioos:station:TCOON:005:1,2019-01-01T08:42:00Z,27.6346,-97.2370,0.0,0.8,339.0,1.1,'11111222,11111222,11111222' 
TCOON,ioos:station:TCOON:005:1,2019-01-01T08:48:00Z,27.6346,-97.2370,0.0,1.4,317.0,1.7,'11111222,11111222,11111222' 
TCOON,ioos:station:TCOON:005:1,2019-01-01T08:54:00Z,27.6346,-97.2370,0.0,1.9,321.0,2.3,'11111222,11111222,11111222' 
TCOON,ioos:station:TCOON:005:1,2019-01-01T09:00:00Z,27.6346,-97.2370,0.0,1.2,346.0,1.6,'11111222,11111222,11111222' 
TCOON,ioos:station:TCOON:005:1,2019-01-01T09:06:00Z,27.6346,-97.2370,0.0,1.2,357.0,1.5,'11111222,11111222,11111222' 
TCOON,ioos:station:TCOON:005:1,2019-01-01T09:12:00Z,27.6346,-97.2370,0.0,1.6,346.0,1.7,'11111222,11111222,11111222' 
TCOON,ioos:station:TCOON:005:1,2019-01-01T09:18:00Z,27.6346,-97.2370,0.0,1.9,8.0,2.0,'11111222,11111222,11111222' 
TCOON,ioos:station:TCOON:005:1,2019-01-01T09:24:00Z,27.6346,-97.2370,0.0,1.9,8.0,2.0,'1111122,1111122,1111122' 
TCOON,ioos:station:TCOON:005:1,2019-01-01T09:30:00Z,27.6346,-97.2370,0.0,1.6,340.0,1.8,'11111222,11111222,11111222' 
TCOON,ioos:station:TCOON:005:1,2019-01-01T09:36:00Z,27.6346,-97.2370,0.0,1.4,329.0,2.0,'11111222,11111222,11111222' 
TCOON,ioos:station:TCOON:005:1,2019-01-01T09:42:00Z,27.6346,-97.2370,0.0,1.6,336.0,1.7,'11111222,11111222,11111222' 
TCOON,ioos:station:TCOON:005:1,2019-01-01T09:48:00Z,27.6346,-97.2370,0.0,1.9,5.0,2.2,'11111222,11111222,11111222' 
TCOON,ioos:station:TCOON:005:1,2019-01-01T09:54:00Z,27.6346,-97.2370,0.0,2.2,359.0,2.5,'11111222,11111222,11111222' 
TCOON,ioos:station:TCOON:005:1,2019-01-01T10:00:00Z,27.6346,-97.2370,0.0,2.3,343.0,2.8,'11111222,11111222,11111222' 
TCOON,ioos:station:TCOON:005:1,2019-01-01T10:06:00Z,27.6346,-97.2370,0.0,2.0,330.0,2.4,'11111222,11111222,11111222' 
TCOON,ioos:station:TCOON:005:1,2019-01-01T10:12:00Z,27.6346,-97.2370,0.0,2.0,325.0,2.3,'11111222,11111222,11111222' 
TCOON,ioos:station:TCOON:005:1,2019-01-01T10:18:00Z,27.6346,-97.2370,0.0,2.3,329.0,2.5,'11111222,11111222,11111222' 
TCOON,ioos:station:TCOON:005:1,2019-01-01T10:24:00Z,27.6346,-97.2370,0.0,2.3,329.0,2.5,'1111122,1111122,1111122' 
TCOON,ioos:station:TCOON:005:1,2019-01-01T10:30:00Z,27.6346,-97.2370,0.0,2.8,337.0,3.1,'11111222,11111222,11111222' 
TCOON,ioos:station:TCOON:005:1,2019-01-01T10:36:00Z,27.6346,-97.2370,0.0,2.5,7.0,3.2,'11111222,11111222,11111222' 
TCOON,ioos:station:TCOON:005:1,2019-01-01T10:42:00Z,27.6346,-97.2370,0.0,2.9,9.0,3.5,'11111222,11111222,11111222' 
TCOON,ioos:station:TCOON:005:1,2019-01-01T10:48:00Z,27.6346,-97.2370,0.0,3.0,4.0,3.9,'11111222,11111222,11111222' 
TCOON,ioos:station:TCOON:005:1,2019-01-01T10:54:00Z,27.6346,-97.2370,0.0,3.6,6.0,4.5,'11111222,11111222,11111222' 
TCOON,ioos:station:TCOON:005:1,2019-01-01T11:00:00Z,27.6346,-97.2370,0.0,3.4,8.0,4.7,'11111222,11111222,11111222' 
TCOON,ioos:station:TCOON:005:1,2019-01-01T11:06:00Z,27.6346,-97.2370,0.0,3.2,7.0,4.5,'11111222,11111222,11111222' 
TCOON,ioos:station:TCOON:005:1,2019-01-01T11:12:00Z,27.6346,-97.2370,0.0,3.6,3.0,4.5,'11111222,11111222,11111222' 
TCOON,ioos:station:TCOON:005:1,2019-01-01T11:18:00Z,27.6346,-97.2370,0.0,3.7,2.0,5.1,'11111222,11111222,11111222' 
TCOON,ioos:station:TCOON:005:1,2019-01-01T11:24:00Z,27.6346,-97.2370,0.0,3.7,2.0,5.1,'1111122,1111122,1111122' 
TCOON,ioos:station:TCOON:005:1,2019-01-01T11:30:00Z,27.6346,-97.2370,0.0,3.8,4.0,5.2,'11111222,11111222,11111222' 
TCOON,ioos:station:TCOON:005:1,2019-01-01T11:36:00Z,27.6346,-97.2370,0.0,3.9,360.0,5.1,'11111222,11144222,11111222' 
TCOON,ioos:station:TCOON:005:1,2019-01-01T11:42:00Z,27.6346,-97.2370,0.0,3.8,5.0,5.7,'11111222,11111222,11111222' 
TCOON,ioos:station:TCOON:005:1,2019-01-01T11:48:00Z,27.6346,-97.2370,0.0,4.8,357.0,5.8,'11111222,11111222,11111222' 
TCOON,ioos:station:TCOON:005:1,2019-01-01T11:54:00Z,27.6346,-97.2370,0.0,4.5,6.0,5.8,'11111222,11111222,11111222' 
TCOON,ioos:station:TCOON:005:1,2019-01-01T12:00:00Z,27.6346,-97.2370,0.0,4.0,5.0,5.6,'11111222,11111222,11111222' 
TCOON,ioos:station:TCOON:005:1,2019-01-01T12:06:00Z,27.6346,-97.2370,0.0,3.5,5.0,5.5,'11111222,11111222,11111222' 
TCOON,ioos:station:TCOON:005:1,2019-01-01T12:12:00Z,27.6346,-97.2370,0.0,3.3,5.0,4.6,'11111222,11111222,11111222' 
TCOON,ioos:station:TCOON:005:1,2019-01-01T12:18:00Z,27.6346,-97.2370,0.0,3.6,9.0,5.5,'11111222,11111222,11111222' 
TCOON,ioos:station:TCOON:005:1,2019-01-01T12:24:00Z,27.6346,-97.2370,0.0,3.6,9.0,5.5,'1111122,1111122,1111122' 
TCOON,ioos:station:TCOON:005:1,2019-01-01T12:30:00Z,27.6346,-97.2370,0.0,4.1,12.0,6.0,'11111222,11111222,11111222' 
TCOON,ioos:station:TCOON:005:1,2019-01-01T12:36:00Z,27.6346,-97.2370,0.0,3.8,10.0,5.2,'11111222,11111222,11111222' 
TCOON,ioos:station:TCOON:005:1,2019-01-01T12:42:00Z,27.6346,-97.2370,0.0,3.8,11.0,5.0,'11111222,11111222,11111222' 
TCOON,ioos:station:TCOON:005:1,2019-01-01T12:48:00Z,27.6346,-97.2370,0.0,3.6,17.0,4.6,'11111222,11111222,11111222' 
TCOON,ioos:station:TCOON:005:1,2019-01-01T12:54:00Z,27.6346,-97.2370,0.0,3.5,16.0,5.0,'11111222,11111222,11111222' 
TCOON,ioos:station:TCOON:005:1,2019-01-01T13:00:00Z,27.6346,-97.2370,0.0,4.2,22.0,4.9,'11111222,11111222,11111222' 
TCOON,ioos:station:TCOON:005:1,2019-01-01T13:06:00Z,27.6346,-97.2370,0.0,4.3,23.0,5.3,'11111222,11111222,11111222' 
TCOON,ioos:station:TCOON:005:1,2019-01-01T13:12:00Z,27.6346,-97.2370,0.0,4.3,30.0,5.2,'11111222,11111222,11111222' 
TCOON,ioos:station:TCOON:005:1,2019-01-01T13:18:00Z,27.6346,-97.2370,0.0,4.8,22.0,6.1,'11111222,11111222,11111222' 
TCOON,ioos:station:TCOON:005:1,2019-01-01T13:24:00Z,27.6346,-97.2370,0.0,4.8,22.0,6.1,'1111122,1111122,1111122' 
TCOON,ioos:station:TCOON:005:1,2019-01-01T13:30:00Z,27.6346,-97.2370,0.0,4.8,18.0,6.2,'11111222,11111222,11111222' 
TCOON,ioos:station:TCOON:005:1,2019-01-01T13:36:00Z,27.6346,-97.2370,0.0,4.6,19.0,5.6,'11111222,11111222,11111222' 
TCOON,ioos:station:TCOON:005:1,2019-01-01T13:42:00Z,27.6346,-97.2370,0.0,4.7,13.0,5.9,'11111222,11111222,11111222' 
TCOON,ioos:station:TCOON:005:1,2019-01-01T13:48:00Z,27.6346,-97.2370,0.0,3.7,6.0,5.6,'11111222,11111222,11111222' 
TCOON,ioos:station:TCOON:005:1,2019-01-01T13:54:00Z,27.6346,-97.2370,0.0,3.5,5.0,5.8,'11111222,11111222,11111222' 
TCOON,ioos:station:TCOON:005:1,2019-01-01T14:00:00Z,27.6346,-97.2370,0.0,3.7,8.0,5.4,'11111222,11111222,11111222' 
TCOON,ioos:station:TCOON:005:1,2019-01-01T14:06:00Z,27.6346,-97.2370,0.0,4.1,10.0,6.1,'11111222,11111222,11111222' 
TCOON,ioos:station:TCOON:005:1,2019-01-01T14:12:00Z,27.6346,-97.2370,0.0,4.1,7.0,6.4,'11111222,11111222,11111222' 
TCOON,ioos:station:TCOON:005:1,2019-01-01T14:18:00Z,27.6346,-97.2370,0.0,3.8,0.0,5.3,'11111222,11111222,11111222' 
TCOON,ioos:station:TCOON:005:1,2019-01-01T14:24:00Z,27.6346,-97.2370,0.0,3.8,0.0,5.3,'1111122,1114422,1111122' 
TCOON,ioos:station:TCOON:005:1,2019-01-01T14:30:00Z,27.6346,-97.2370,0.0,3.1,7.0,5.0,'11111222,11111222,11111222' 
TCOON,ioos:station:TCOON:005:1,2019-01-01T14:36:00Z,27.6346,-97.2370,0.0,3.4,3.0,5.4,'11111222,11111222,11111222' 
TCOON,ioos:station:TCOON:005:1,2019-01-01T14:42:00Z,27.6346,-97.2370,0.0,3.9,5.0,5.6,'11111222,11111222,11111222' 
TCOON,ioos:station:TCOON:005:1,2019-01-01T14:48:00Z,27.6346,-97.2370,0.0,4.2,0.0,5.4,'11111222,11111222,11111222' 
TCOON,ioos:station:TCOON:005:1,2019-01-01T14:54:00Z,27.6346,-97.2370,0.0,4.2,358.0,5.5,'11111222,11111222,11111222' 
TCOON,ioos:station:TCOON:005:1,2019-01-01T15:00:00Z,27.6346,-97.2370,0.0,4.1,5.0,6.9,'11111222,11111222,11111222' 
TCOON,ioos:station:TCOON:005:1,2019-01-01T15:06:00Z,27.6346,-97.2370,0.0,4.9,0.0,6.7,'11111222,11111222,11111222' 
TCOON,ioos:station:TCOON:005:1,2019-01-01T15:12:00Z,27.6346,-97.2370,0.0,6.1,2.0,7.6,'11111222,11111222,11111222' 
TCOON,ioos:station:TCOON:005:1,2019-01-01T15:18:00Z,27.6346,-97.2370,0.0,5.3,5.0,7.2,'11111222,11111222,11111222' 
TCOON,ioos:station:TCOON:005:1,2019-01-01T15:24:00Z,27.6346,-97.2370,0.0,5.3,5.0,7.2,'1111122,1111122,1111122' 
TCOON,ioos:station:TCOON:005:1,2019-01-01T15:30:00Z,27.6346,-97.2370,0.0,6.0,7.0,8.3,'11111222,11111222,11111222' 
TCOON,ioos:station:TCOON:005:1,2019-01-01T15:36:00Z,27.6346,-97.2370,0.0,6.1,13.0,8.8,'11111222,11111222,11111222' 
TCOON,ioos:station:TCOON:005:1,2019-01-01T15:42:00Z,27.6346,-97.2370,0.0,6.2,12.0,8.3,'11111222,11111222,11111222' 
TCOON,ioos:station:TCOON:005:1,2019-01-01T15:48:00Z,27.6346,-97.2370,0.0,5.6,16.0,8.4,'11111222,11111222,11111222' 
TCOON,ioos:station:TCOON:005:1,2019-01-01T15:54:00Z,27.6346,-97.2370,0.0,5.9,11.0,8.4,'11111222,11111222,11111222' 
TCOON,ioos:station:TCOON:005:1,2019-01-01T16:00:00Z,27.6346,-97.2370,0.0,6.3,9.0,8.9,'11111222,11111222,11111222' 
TCOON,ioos:station:TCOON:005:1,2019-01-01T16:06:00Z,27.6346,-97.2370,0.0,5.6,3.0,8.3,'11111222,11111222,11111222' 
TCOON,ioos:station:TCOON:005:1,2019-01-01T16:12:00Z,27.6346,-97.2370,0.0,6.1,8.0,8.0,'11111222,11111222,11111222' 
TCOON,ioos:station:TCOON:005:1,2019-01-01T16:18:00Z,27.6346,-97.2370,0.0,5.8,11.0,7.9,'11111222,11111222,11111222' 
TCOON,ioos:station:TCOON:005:1,2019-01-01T16:24:00Z,27.6346,-97.2370,0.0,5.8,11.0,7.9,'1111122,1111122,1111122' 
TCOON,ioos:station:TCOON:005:1,2019-01-01T16:30:00Z,27.6346,-97.2370,0.0,6.6,21.0,8.5,'11111222,11111222,11111222' 
TCOON,ioos:station:TCOON:005:1,2019-01-01T16:36:00Z,27.6346,-97.2370,0.0,6.3,17.0,8.5,'11111222,11111222,11111222' 
TCOON,ioos:station:TCOON:005:1,2019-01-01T16:42:00Z,27.6346,-97.2370,0.0,6.6,20.0,8.4,'11111222,11111222,11111222' 
TCOON,ioos:station:TCOON:005:1,2019-01-01T16:48:00Z,27.6346,-97.2370,0.0,6.1,19.0,8.0,'11111222,11111222,11111222' 
TCOON,ioos:station:TCOON:005:1,2019-01-01T16:54:00Z,27.6346,-97.2370,0.0,6.3,17.0,8.3,'11111222,11111222,11111222' 
TCOON,ioos:station:TCOON:005:1,2019-01-01T17:00:00Z,27.6346,-97.2370,0.0,7.3,16.0,10.4,'11111222,11111222,11111222' 
TCOON,ioos:station:TCOON:005:1,2019-01-01T17:06:00Z,27.6346,-97.2370,0.0,8.1,20.0,10.1,'11111222,11111222,11111222' 
TCOON,ioos:station:TCOON:005:1,2019-01-01T17:12:00Z,27.6346,-97.2370,0.0,7.4,24.0,9.6,'11111222,11111222,11111222' 
TCOON,ioos:station:TCOON:005:1,2019-01-01T17:18:00Z,27.6346,-97.2370,0.0,7.3,20.0,9.3,'11111222,11111222,11111222' 
TCOON,ioos:station:TCOON:005:1,2019-01-01T17:24:00Z,27.6346,-97.2370,0.0,7.3,20.0,9.3,'1111122,1111122,1111122' 
TCOON,ioos:station:TCOON:005:1,2019-01-01T17:30:00Z,27.6346,-97.2370,0.0,7.1,14.0,9.1,'11111222,11111222,11111222' 
TCOON,ioos:station:TCOON:005:1,2019-01-01T17:36:00Z,27.6346,-97.2370,0.0,7.5,14.0,9.3,'11111222,11111222,11111222' 
TCOON,ioos:station:TCOON:005:1,2019-01-01T17:42:00Z,27.6346,-97.2370,0.0,7.7,17.0,10.0,'11111222,11111222,11111222' 
TCOON,ioos:station:TCOON:005:1,2019-01-01T17:48:00Z,27.6346,-97.2370,0.0,7.1,26.0,9.6,'11111222,11111222,11111222' 
TCOON,ioos:station:TCOON:005:1,2019-01-01T17:54:00Z,27.6346,-97.2370,0.0,8.5,26.0,10.3,'11111222,11111222,11111222' 
TCOON,ioos:station:TCOON:005:1,2019-01-01T18:00:00Z,27.6346,-97.2370,0.0,9.1,19.0,11.1,'11111222,11111222,11111222' 
TCOON,ioos:station:TCOON:005:1,2019-01-01T18:06:00Z,27.6346,-97.2370,0.0,8.1,14.0,10.5,'11111222,11111222,11111222' 
TCOON,ioos:station:TCOON:005:1,2019-01-01T18:12:00Z,27.6346,-97.2370,0.0,8.0,18.0,9.7,'11111222,11111222,11111222' 
TCOON,ioos:station:TCOON:005:1,2019-01-01T18:18:00Z,27.6346,-97.2370,0.0,7.8,19.0,10.3,'11111222,11111222,11111222' 
TCOON,ioos:station:TCOON:005:1,2019-01-01T18:24:00Z,27.6346,-97.2370,0.0,7.8,19.0,10.3,'1111122,1111122,1111122' 
TCOON,ioos:station:TCOON:005:1,2019-01-01T18:30:00Z,27.6346,-97.2370,0.0,6.6,13.0,9.2,'11111222,11111222,11111222' 
TCOON,ioos:station:TCOON:005:1,2019-01-01T18:36:00Z,27.6346,-97.2370,0.0,6.5,7.0,9.3,'11111222,11111222,11111222' 
TCOON,ioos:station:TCOON:005:1,2019-01-01T18:42:00Z,27.6346,-97.2370,0.0,6.0,11.0,8.9,'11111222,11111222,11111222' 
TCOON,ioos:station:TCOON:005:1,2019-01-01T18:48:00Z,27.6346,-97.2370,0.0,6.6,9.0,9.0,'11111222,11111222,11111222' 
TCOON,ioos:station:TCOON:005:1,2019-01-01T18:54:00Z,27.6346,-97.2370,0.0,6.2,16.0,8.5,'11111222,11111222,11111222' 
TCOON,ioos:station:TCOON:005:1,2019-01-01T19:00:00Z,27.6346,-97.2370,0.0,6.3,8.0,8.2,'11111222,11111222,11111222' 
TCOON,ioos:station:TCOON:005:1,2019-01-01T19:06:00Z,27.6346,-97.2370,0.0,5.6,18.0,8.2,'11111222,11111222,11111222' 
TCOON,ioos:station:TCOON:005:1,2019-01-01T19:12:00Z,27.6346,-97.2370,0.0,5.8,12.0,7.7,'11111222,11111222,11111222' 
TCOON,ioos:station:TCOON:005:1,2019-01-01T19:18:00Z,27.6346,-97.2370,0.0,5.9,20.0,7.7,'11111222,11111222,11111222' 
TCOON,ioos:station:TCOON:005:1,2019-01-01T19:24:00Z,27.6346,-97.2370,0.0,5.9,20.0,7.7,'1111122,1111122,1111122' 
TCOON,ioos:station:TCOON:005:1,2019-01-01T19:30:00Z,27.6346,-97.2370,0.0,5.1,13.0,7.1,'11111222,11111222,11111222' 
TCOON,ioos:station:TCOON:005:1,2019-01-01T19:36:00Z,27.6346,-97.2370,0.0,6.1,12.0,9.0,'11111222,11111222,11111222' 
TCOON,ioos:station:TCOON:005:1,2019-01-01T19:42:00Z,27.6346,-97.2370,0.0,5.3,15.0,7.5,'11111222,11111222,11111222' 
TCOON,ioos:station:TCOON:005:1,2019-01-01T19:48:00Z,27.6346,-97.2370,0.0,5.8,21.0,7.5,'11111222,11111222,11111222' 
TCOON,ioos:station:TCOON:005:1,2019-01-01T19:54:00Z,27.6346,-97.2370,0.0,5.4,27.0,7.8,'11111222,11111222,11111222' 
TCOON,ioos:station:TCOON:005:1,2019-01-01T20:00:00Z,27.6346,-97.2370,0.0,5.7,31.0,6.9,'11111222,11111222,11111222' 
TCOON,ioos:station:TCOON:005:1,2019-01-01T20:06:00Z,27.6346,-97.2370,0.0,5.9,32.0,8.9,'11111222,11111222,11111222' 
TCOON,ioos:station:TCOON:005:1,2019-01-01T20:12:00Z,27.6346,-97.2370,0.0,6.1,25.0,8.4,'11111222,11111222,11111222' 
TCOON,ioos:station:TCOON:005:1,2019-01-01T20:18:00Z,27.6346,-97.2370,0.0,5.8,20.0,8.2,'11111222,11111222,11111222' 
TCOON,ioos:station:TCOON:005:1,2019-01-01T20:24:00Z,27.6346,-97.2370,0.0,5.8,20.0,8.2,'1111122,1111122,1111122' 